Showing default

SURCAL 159, 2872

Orbit data source: Space-Track

SURCAL 159, 2872 is a payload satellite owned by NRL (US) in LEO that was launched on Wed, 31 May 1967 UTC via a THOR SLV-2 AGENA D launch vehicle from the Air Force Western Test Range (AFWTR). Payloads include a variety of satellites, spacecraft, and rockets equipped with specific instruments for various scientific and technological missions. These include communications satellites like Starlink; space stations such as the ISS; scientific satellites like the Hubble; Earth observation satellites from companies like Planet Labs, Umbra, and HawkEye 360; GPS; miniature CubeSats for education and research; and military/defense satellites.

Loading next visibility...
SURCAL 159 details
Identifier
2872, 1967-053F
Orbit
LEO
Last TLE update22 hours ago
Origin
Flag of USNRL (US)
ManufacturerNRL
MissionOperational Defense Calibration
Bus & MotorNRL 14"?, Unknown motor
Mass3 kg wet, 3 kg dry
Launch date (UTC)
1967-05-31 (58 years ago)
Launch vehicle
THOR SLV-2 AGENA D
Launch site
Air Force Western Test Range (AFWTR)
Object type
Payload
Rocket body
Debris
Shape & HBRSphere, 0.4 m
Radar Cross Section0.126 m², Medium (>0.1 m² and < 1m²)

Expand to show TLE details & history

TLE from 22 hours ago
0 SURCAL 159
1 02872U 67053F   24355.68288532  .00000225  00000-0  19156-3 0  9995
2 02872  69.9746  90.9904 0003631 117.2370 242.9108 13.99375741934165
Epoch: 2024-12-20T16:23Z
Definitive object data (Epoch: 2024-12-20T16:23:21.291Z)
Latitude0.00001°
Longitude115.40681°
Altitude899.476 km
Speed7.402 km/s
True Right ascension06h 03m 57s
True Declination0° 00' 00"
Sunlit
Object was in full shadow at TLE epoch
Visualization TLE readout
Latitude-39.79289°
Longitude95.84795°
Altitude912.995 km
Speed7.393 km/s
Apparent Right ascension03h 15m 31s
Apparent Declination-42° 17' 27"
Sunlit
Object is in daylight
Visualization observer readout
Local Sidereal Time13:31:20
Azimuth254.572° W
Elevation-70.308°
Doppler factor1
Orbital elements
Apogee altitude896.641 km
Perigee altitude891.36 km
Semi-major axis7,272.137 km
Eccentricity0.0003631
Inclination69.9746°
RAAN90.9904°
Arg. of periapsis117.237°
True anomaly242.87376°
Mean anomaly242.9108°
Eccentric anomaly242.89228°
Mean motion3.49986 °/min
BSTAR0.00019156
Orbital period102.86 mins
Loading maneuver chart data...
Loading historical data...
Loading historical data...
Loading historical data...
Loading historical data...
Loading historical data...
Loading historical data...
Loading historical data...

SURCAL 159 Visibility forecast

Observer location: undefined°, undefined

Span
Click to sort rows by Start time (UTC) header in descending order
Start Az.
Max El. time (UTC)
Max El. Az.
Max El.
End time (UTC)
End Az.
10 mins2024-12-21 16:57:12.148Z348.053° N2024-12-21 17:02:12.148Z50.911° ENE35.39°2024-12-21 17:07:12.148Z128.832° SE
8 mins2024-12-21 18:44:12.148Z301.105° NW2024-12-21 18:47:12.148Z262.73° W23.633°2024-12-21 18:52:12.148Z203.279° SW
4 mins2024-12-22 06:17:12.148Z113.817° SE2024-12-22 06:18:12.148Z102.946° ESE13.47°2024-12-22 06:21:12.148Z71.341° E
9 mins2024-12-22 07:59:12.148Z209.624° SW2024-12-22 08:03:12.148Z296.769° NW44.516°2024-12-22 08:08:12.148Z21.537° NNE
4 mins2024-12-22 09:48:12.148Z300.145° NW2024-12-22 09:49:12.148Z311.134° NW13.617°2024-12-22 09:52:12.148Z342.862° N
|